Date String (YYYY-MM-DD hh:mm:ss) UTC,Instrument flags,Ambient pressure (hPa),Sample flow (lpm),Bypass flow (lpm),Sample temperature (°C),Ambient temperature (°C),ASC tube jacket temperature (°C),LED temperature (°C),Box temperature (°C),Sample RH (%),Span deviation,Mass concentration (μg/m³),Mass concentration (μg/m³),Mass concentration (μg/m³)
DateTimeUTC,F1_M11,P_M11,Q1_M11,Q2_M11,T1_M11,T2_M11,T3_M11,T4_M11,T5_M11,U1_M11,ZSPAN_M11,X0_M11,X2_M11,X1_M11
2023-02-06 02:00:00,,0818.0,5.02,0.00,25.7,23.8,00.0,34.6,27.4,11.7,0000.0,0016.39,0008.96,0008.02
2023-02-06 02:01:00,,0817.9,5.00,0.00,25.6,23.8,00.0,34.6,27.4,11.7,0000.0,0016.34,0008.94,0008.04
2023-02-06 02:02:00,,0817.8,4.96,0.00,25.6,23.9,00.0,34.6,27.4,11.6,0000.1,0016.52,0009.01,0008.08
2023-02-06 02:03:00,,0817.8,5.00,0.00,25.6,23.9,00.0,34.6,27.4,11.6,-000.0,0016.58,0009.03,0008.10
2023-02-06 02:04:00,,0817.9,5.03,0.00,25.6,24.0,00.0,34.5,27.4,11.6,0000.2,0016.52,0009.05,0008.11
2023-02-06 02:05:00,,0818.1,4.99,0.00,25.6,24.0,00.0,34.5,27.4,11.6,-000.0,0016.00,0009.07,0008.13
2023-02-06 02:06:00,,0818.1,4.98,0.00,25.6,24.0,00.0,34.5,27.4,11.6,0000.0,0015.85,0009.07,0008.14
2023-02-06 02:07:00,,0818.0,5.04,0.00,25.6,23.7,00.0,34.5,27.3,11.7,0000.0,0015.94,0009.08,0008.15
2023-02-06 02:08:00,,0818.0,5.01,0.00,25.5,23.6,00.0,34.5,27.2,11.7,0000.0,0015.18,0009.04,0008.16
2023-02-06 02:09:00,,0817.9,4.96,0.00,25.5,23.6,00.0,34.5,27.2,11.7,0000.0,0015.04,0009.05,0008.17
2023-02-06 02:10:00,,0817.8,5.02,0.00,25.5,23.7,00.0,34.5,27.3,11.7,0000.0,0014.64,0009.05,0008.18
2023-02-06 02:11:00,,0817.9,5.02,0.00,25.5,23.8,00.0,34.5,27.3,11.7,0000.0,0014.71,0009.07,0008.18
2023-02-06 02:12:00,,0817.8,5.01,0.00,25.5,23.8,00.0,34.4,27.3,11.7,0000.0,0014.97,0009.07,0008.18
2023-02-06 02:13:00,,0817.8,4.95,0.00,25.5,23.9,00.0,34.4,27.3,11.7,0000.3,0014.79,0009.02,0008.19
2023-02-06 02:14:00,,0817.8,5.02,0.00,25.5,23.9,00.0,34.4,27.3,11.7,0000.9,0014.73,0009.05,0008.21
2023-02-06 02:15:00,,0817.9,5.03,0.00,25.5,24.0,00.0,34.4,27.4,11.7,0001.0,0014.95,0009.06,0008.22
2023-02-06 02:16:00,,0818.0,4.96,0.00,25.5,23.9,00.0,34.4,27.3,11.7,0000.3,0015.03,0009.02,0008.21
2023-02-06 02:17:00,,0817.9,5.00,0.00,25.5,23.7,00.0,34.4,27.3,11.7,0000.4,0015.33,0009.02,0008.21
2023-02-06 02:18:00,,0817.9,5.04,0.00,25.5,23.5,00.0,34.4,27.2,11.8,0000.2,0015.34,0009.00,0008.21
2023-02-06 02:19:00,,0817.8,5.00,0.00,25.4,23.4,00.0,34.4,27.1,11.8,0000.4,0014.52,0008.99,0008.21
2023-02-06 02:20:00,,0817.9,4.97,0.00,25.4,23.4,00.0,34.4,27.1,11.8,0001.4,0014.55,0009.00,0008.21
2023-02-06 02:21:00,,0817.9,5.01,0.00,25.4,23.4,00.0,34.4,27.1,11.8,0002.5,0014.79,0008.96,0008.20
2023-02-06 02:22:00,,0817.8,5.03,0.00,25.4,23.5,00.0,34.3,27.1,11.8,0002.2,0014.72,0008.95,0008.19
2023-02-06 02:23:00,,0817.8,5.01,0.00,25.4,23.6,00.0,34.3,27.2,11.8,0002.3,0014.35,0008.90,0008.17
2023-02-06 02:24:00,,0817.8,4.96,0.00,25.4,23.6,00.0,34.3,27.1,11.9,0001.8,0014.30,0008.87,0008.14
2023-02-06 02:25:00,,0817.8,5.02,0.00,25.3,23.6,00.0,34.3,27.1,11.9,0001.5,0014.20,0008.82,0008.11
2023-02-06 02:26:00,,0817.9,5.02,0.00,25.3,23.6,00.0,34.3,27.1,11.9,0001.0,0013.77,0008.77,0008.09
2023-02-06 02:27:00,,0817.8,4.97,0.00,25.3,23.5,00.0,34.3,27.1,12.0,0001.8,0013.75,0008.79,0008.09
2023-02-06 02:28:00,,0817.8,4.99,0.00,25.3,23.5,00.0,34.3,27.1,12.1,0001.5,0013.61,0008.81,0008.07
2023-02-06 02:29:00,,0817.6,5.03,0.00,25.3,23.5,00.0,34.3,27.1,12.1,0001.3,0013.54,0008.83,0008.08
2023-02-06 02:30:00,,0817.6,5.02,0.00,25.3,23.5,00.0,34.3,27.1,12.2,0001.7,0013.59,0008.85,0008.08
2023-02-06 02:31:00,,0817.6,4.96,0.00,25.3,23.6,00.0,34.2,27.1,12.3,0000.3,0013.42,0008.84,0008.06
2023-02-06 02:32:00,,0817.6,5.01,0.00,25.3,23.6,00.0,34.2,27.1,12.4,0000.1,0013.16,0008.85,0008.06
2023-02-06 02:33:00,,0817.7,5.02,0.00,25.3,23.6,00.0,34.2,27.1,12.4,0000.0,0014.02,0008.85,0008.06
2023-02-06 02:34:00,,0817.7,4.99,0.00,25.3,23.5,00.0,34.2,27.0,12.4,0000.0,0014.12,0008.91,0008.09
2023-02-06 02:35:00,,0817.7,4.96,0.00,25.2,23.3,00.0,34.2,26.9,12.3,0000.0,0014.21,0008.95,0008.11
2023-02-06 02:36:00,,0817.5,5.03,0.00,25.2,23.2,00.0,34.2,26.9,12.3,0000.0,0014.29,0008.98,0008.13
2023-02-06 02:37:00,,0817.6,5.03,0.00,25.2,23.1,00.0,34.1,26.9,12.3,0000.0,0014.56,0009.05,0008.15
2023-02-06 02:38:00,,0817.5,5.00,0.00,25.1,23.2,00.0,34.1,26.9,12.3,0000.0,0014.55,0009.08,0008.18
2023-02-06 02:39:00,,0817.5,4.96,0.00,25.1,23.2,00.0,34.1,26.8,12.3,0000.0,0014.66,0009.13,0008.22
2023-02-06 02:40:00,,0817.6,5.03,0.00,25.1,23.2,00.0,34.1,26.8,12.4,0000.0,0014.76,0009.17,0008.23
2023-02-06 02:41:00,,0817.5,5.03,0.00,25.1,23.1,00.0,34.1,26.8,12.4,0000.0,0014.82,0009.19,0008.26
2023-02-06 02:42:00,,0817.4,4.97,0.00,25.0,23.0,00.0,34.1,26.7,12.4,0000.0,0014.79,0009.25,0008.32
2023-02-06 02:43:00,,0817.5,4.99,0.00,25.0,23.0,00.0,34.0,26.7,12.5,0000.0,0014.90,0009.30,0008.34
2023-02-06 02:44:00,,0817.6,5.02,0.00,25.0,23.0,00.0,34.0,26.7,12.5,0000.0,0014.56,0009.33,0008.36
2023-02-06 02:45:00,,0817.6,5.04,0.00,25.0,22.9,00.0,34.0,26.7,12.5,0000.0,0014.75,0009.37,0008.37
2023-02-06 02:46:00,,0817.6,4.97,0.00,24.9,22.9,00.0,34.0,26.6,12.4,0000.0,0014.88,0009.38,0008.39
2023-02-06 02:47:00,,0817.6,4.97,0.00,24.9,22.8,00.0,33.9,26.6,12.2,0000.0,0015.50,0009.41,0008.45
2023-02-06 02:48:00,,0817.5,5.02,0.00,24.9,22.8,00.0,33.9,26.6,12.1,0000.0,0015.49,0009.48,0008.58
2023-02-06 02:49:00,,0817.5,5.03,0.00,24.9,22.8,00.0,33.9,26.6,12.0,0000.0,0015.88,0009.61,0008.73
2023-02-06 02:50:00,,0817.6,5.00,0.00,24.8,22.9,00.0,33.9,26.6,12.0,0000.0,0016.34,0009.74,0008.91
2023-02-06 02:51:00,,0817.6,4.96,0.00,24.8,22.8,00.0,33.9,26.5,12.0,0000.0,0016.56,0009.93,0009.12
2023-02-06 02:52:00,,0817.5,5.01,0.00,24.8,22.7,00.0,33.8,26.5,12.0,0000.0,0016.87,0010.13,0009.34
2023-02-06 02:53:00,,0817.5,5.03,0.00,24.7,22.7,00.0,33.8,26.4,12.1,0000.0,0018.38,0010.30,0009.53
2023-02-06 02:54:00,,0817.6,4.98,0.00,24.7,22.6,00.0,33.8,26.4,12.1,0000.0,0018.51,0010.51,0009.73
2023-02-06 02:55:00,,0817.5,4.99,0.00,24.7,22.8,00.0,33.8,26.4,12.0,0000.0,0018.35,0010.76,0009.95
2023-02-06 02:56:00,,0817.5,5.02,0.00,24.7,22.9,00.0,33.7,26.4,12.0,0000.0,0018.58,0011.01,0010.17
2023-02-06 02:57:00,,0817.5,4.99,0.00,24.7,22.9,00.0,33.7,26.5,11.9,0000.0,0019.07,0011.25,0010.40
2023-02-06 02:58:00,,0817.4,4.98,0.00,24.7,22.9,00.0,33.7,26.5,11.9,0000.0,0019.79,0011.49,0010.62
2023-02-06 02:59:00,,0817.4,5.02,0.00,24.7,23.0,00.0,33.7,26.5,11.9,0000.0,0020.23,0011.66,0010.73
